Regional Weather Roundup
Issued by NWS

Home | Current Version | Previous Version | Graphics & Text | Print | Product List | Glossary On
Versions: 1 2 3 4 5 6 7 8 9 10 11 12 13 14 15 16 17 18 19 20 21 22 23 24 25 26 27
000
ASUS45 KTFX 231010
RWRMT
MONTANA REGIONAL WEATHER ROUNDUP
NATIONAL WEATHER SERVICE GREAT FALLS MT
400 AM MDT TUE MAY 23 2017

NOTE: "FAIR" INDICATES FEW OR NO CLOUDS BELOW 12000 FEET WITH NO
SIGNIFICANT WEATHER AND/OR OBSTRUCTIONS TO VISIBILITY.

MTZ001>007-043-231100-
WEST OF THE DIVIDE

CITY           SKY/WX    TMP DP  RH WIND       PRES   REMARKS
KALISPELL      CLEAR     44  43  96 CALM      30.12S
MISSOULA       CLEAR     47  39  74 CALM      30.19R
BUTTE          CLEAR     38  33  82 S6        30.27S
MULLAN PASS    CLEAR     54  34  46 NW3       30.24F
ANACONDA         N/A     43  36  75 S6        30.25R
DEER LODGE       N/A     45  37  76 S3        30.26R
EUREKA           N/A     46  39  76 CALM      30.10S
HAMILTON         N/A     52  39  62 S8        30.19R
LIBBY            N/A     45  43  93 CALM      30.11R
RONAN            N/A     46  40  79 CALM      30.16S
$$

MTZ008-052>055-231100-
SOUTHWEST MONTANA

CITY           SKY/WX    TMP DP  RH WIND       PRES   REMARKS
BOZEMAN        CLEAR     39  35  86 SE8       30.23S
DILLON         CLEAR     40  35  83 S5        30.25S
W YELLOWSTONE  CLOUDY    27  27 100 CALM      30.33S
ENNIS          CLEAR     39  34  81 CALM      30.31S
THREE FORKS      N/A     40  38  93 CALM      30.19S
$$

MTZ009-010-012-014-046-048-049-054-231100-
EAST SLOPES AND CENTRAL MONTANA

CITY           SKY/WX    TMP DP  RH WIND       PRES   REMARKS
CUT BANK       CLEAR     47  33  58 SE3       30.14F
GREAT FALLS    CLEAR     49  38  65 SW6       30.16F
HELENA         CLEAR     49  41  74 SW3       30.19F
CHOTEAU          N/A     45  41  87 SW7       30.17F
$$

MTZ011-013-016-021-045-047-050-051-231100-
NORTH CENTRAL MONTANA

CITY           SKY/WX    TMP DP  RH WIND       PRES   REMARKS
HAVRE          PTCLDY    43  32  65 CALM      30.15S
LEWISTOWN      CLEAR     37  32  82 SE7       30.20F WCI  32
N BAR RANCH      N/A     36  30  80 NW5       30.25F
CHINOOK          N/A     45  34  65 CALM      30.16F
$$

MTZ017>020-022>027-061-062-231100-
NORTHEAST MONTANA

CITY           SKY/WX    TMP DP  RH WIND       PRES   REMARKS
GLASGOW        CLEAR     40  32  73 NW6       30.17S
JORDAN           N/A     36  32  85 W6        30.19S WCI  31
SIDNEY         CLEAR     39  33  79 CALM      30.16F
WOLF POINT     CLEAR     40  33  76 W6        30.17S
MALTA          CLEAR     37  34  87 NW3       30.18S
PLENTYWOOD       N/A     45  32  61 CALM      30.16S
POPLAR           N/A     41  32  70 N3        30.17S
$$

MTZ028>42-056>058-231100-
SOUTHCENTRAL AND SOUTHEAST MONTANA

CITY           SKY/WX    TMP DP  RH WIND       PRES   REMARKS
BAKER          CLEAR     44  36  73 CALM      30.18R
BILLINGS       PTCLDY    45  39  79 SW7       30.21F
LIVINGSTON     CLEAR     33  32  96 CALM      30.24S
MILES CITY     CLEAR     38  33  82 W9        30.18S WCI  31
BIG TIMBER     CLEAR     41  37  87 SW8       30.26S
FORSYTH          N/A     45  39  81 CALM      30.19S
LAUREL           N/A     40  26  57 MISG      30.18F
ROUNDUP          N/A     42  32  68 SW2       30.11F
$$

REGIONAL REPORTS...DAKOTAS

CITY           SKY/WX    TMP DP  RH WIND       PRES   REMARKS
WILLISTON      CLEAR     36  32  85 CALM      30.16S
MINOT          CLEAR     45  36  70 NW10      30.10S
DICKINSON      CLEAR     36  32  85 NW8       30.12S WCI  30
BEACH            N/A     37  36  93 S5        30.19F
TIOGA            N/A     36  36 100 W5        30.17R
WATFORD CITY     N/A     36  32  87 CALM      30.15S
BISMARCK       CLOUDY    53  37  54 N16G23    30.05S
GRAND FORKS    LGT RAIN  49  46  90 N15       29.94S
FARGO          CLOUDY    48  46  93 N15       29.90S
BUFFALO SD       N/A     45  36  70 N10       30.09R
RAPID CITY     CLOUDY    49  39  68 N16       30.11R
$$

REGIONAL REPORTS...WYOMING/IDAHO/WASHINGTON

CITY           SKY/WX    TMP DP  RH WIND       PRES   REMARKS
GILLETTE       CLOUDY    41  39  93 W12       30.19S
SHERIDAN       CLOUDY    42  38  85 CALM      30.22S
BUFFALO WY     MOCLDY    40  33  76 W7        30.23F
CODY           CLEAR     42  34  73 SW7       30.26S
YELLOWSTONE LA   N/A     27  26  96 CALM      30.37S
IDAHO FALLS    CLEAR     42  38  85 N7        30.25S
SALMON         CLEAR     45  39  81 CALM      30.21R
BOISE          CLEAR     56  41  57 SE7       30.10S
SPOKANE        CLEAR     59  47  64 S3        30.08S
$$

REGIONAL REPORTS...ALBERTA

CITY           SKY/WX    TMP DP  RH WIND       PRES   REMARKS
EDMONTON       CLEAR     63  41  45 S10       29.90F
CALGARY        CLOUDY    59  39  47 W5        30.03F
LETHBRIDGE     CLEAR     57  30  35 S21       30.03F
MEDICINE HAT   CLEAR     55  34  44 S6        30.09F
WATERTON GATE    N/A     52  36  54 SW9         N/A
CARDSTON         N/A     50  37  62 S6          N/A
MILK RIVER       N/A     46  36  66 S6          N/A
$$

REGIONAL REPORTS...SASKATCHEWAN

CITY           SKY/WX    TMP DP  RH WIND       PRES   REMARKS
SWIFT CURRENT  CLEAR     43  30  61 S10       30.14F
REGINA         CLEAR     39  30  70 SE9       30.15S
SASKATOON      PTCLDY    43  36  75 S5        30.11F
CYPRESS HILLS    N/A     45  28  53 S8          N/A
VAL MARIE        N/A     32  27  80 NE5         N/A
ROCKGLEN         N/A     43  30  61 NW2         N/A
$$




USA.gov is the U.S. government's official web portal to all federal, state and local government web resources and services.